Location: Cactus School
(34.5700°N, 118.0931°W)
Time: 08:16:54
(UTC-07:00)

Envisat - Visible Passes

Search period start: 25 June 2018 00:00
Search period end: 05 July 2018 00:00
Orbit: 764 x 766 km, 98.2° (Epoch: 25 June)

Date Brightness Start Highest point End Pass type
(mag) Time Alt. Az. Time Alt. Az. Time Alt. Az.
26 Jun 5.5 21:17:59 10° SW 21:21:32 19° W 21:25:05 10° NW visible
27 Jun 4.1 20:39:46 10° S 20:44:36 45° W 20:49:28 10° NNW visible
29 Jun 5.1 21:06:12 10° SSW 21:10:17 24° W 21:14:24 10° NW visible
30 Jun 3.7 20:28:26 10° S 20:33:26 59° W 20:38:26 10° NNW visible
01 Jul 5.7 21:33:47 10° WSW 21:36:04 13° W 21:38:21 10° WNW visible
02 Jul 4.8 20:54:36 10° SSW 20:59:04 31° W 21:03:34 10° NW visible
04 Jul 5.6 21:21:33 10° SW 21:24:49 17° W 21:28:05 10° NW visible
